Location: Recife
(8.0585°S, 34.8848°W)
Time: 20:47:25
(UTC-03:00)

S-56A Canister/Altair - Pass Details

Date: 18 April 2026
Orbit: 633 x 2484 km, 38.9° (Epoch: 16 May)

Event Time Altitude Azimuth Distance (km) Brightness Sun altitude
Rises 11:20:53 0° 325° (NW) 6,084 12.3 71.0°
Reaches altitude 10° 11:25:23 10° 331° (NNW) 4,961 12.1 70.9°
Maximum altitude 11:38:08 44° 38° (NE) 2,491 11.2 70.4°
Drops below altitude 10° 11:47:21 10° 107° (ESE) 3,652 11.0 69.7°
Sets 11:50:07 0° 114° (ESE) 4,397 11.3 69.4°
